| time (UTC) | temp F | wind direction | speed knots | gust knots | rain 1hr in | rain 24hr in | rain mn in | humidity % | barometer mb |
| 20260507224537 | 56 | 79 | 0.9 | 3.5 | 0.00 | 0.00 | 0.00 | 84 | 1014.3 |
| 20260507224036 | 56 | 79 | 0.9 | 3.5 | 0.00 | 0.00 | 0.00 | 84 | 1014.3 |
| 20260507223516 | 56 | 159 | 0.0 | 2.6 | 0.00 | 0.00 | 0.00 | 84 | 1014.2 |
| 20260507223016 | 56 | 89 | 0.9 | 3.5 | 0.00 | 0.00 | 0.00 | 84 | 1014.2 |
| 20260507222517 | 56 | 76 | 1.7 | 3.5 | 0.00 | 0.00 | 0.00 | 84 | 1014.2 |
| 20260507222016 | 56 | 0.0 | 2.6 | 0.00 | 0.00 | 0.00 | 84 | 1014.2 | |
| 20260507221516 | 57 | 59 | 0.9 | 2.6 | 0.00 | 0.00 | 0.00 | 84 | 1014.3 |
| 20260507221016 | 57 | 71 | 0.9 | 4.3 | 0.00 | 0.00 | 0.00 | 84 | 1014.2 |
| 20260507220517 | 57 | 95 | 1.7 | 4.3 | 0.00 | 0.00 | 0.00 | 84 | 1014.2 |
| 20260507220057 | 57 | 122 | 0.9 | 3.5 | 0.00 | 0.00 | 0.00 | 84 | 1014.3 |
| 20260507215514 | 57 | 106 | 0.9 | 3.5 | 0.00 | 0.00 | 0.00 | 84 | 1014.3 |
| 20260507215034 | 57 | 67 | 1.7 | 3.5 | 0.00 | 0.00 | 0.00 | 84 | 1014.3 |
| 20260507214515 | 57 | 80 | 1.7 | 4.3 | 0.00 | 0.00 | 0.00 | 84 | 1014.3 |
| 20260507214015 | 57 | 75 | 2.6 | 4.3 | 0.00 | 0.00 | 0.00 | 84 | 1014.2 |
| 20260507213515 | 57 | 63 | 1.7 | 3.5 | 0.00 | 0.00 | 0.00 | 84 | 1014.3 |
| 20260507213014 | 57 | 67 | 0.0 | 1.7 | 0.00 | 0.00 | 0.00 | 84 | 1014.3 |
| 20260507212534 | 58 | 87 | 0.0 | 2.6 | 0.00 | 0.00 | 0.00 | 84 | 1014.3 |
| 20260507212014 | 58 | 116 | 1.7 | 2.6 | 0.00 | 0.00 | 0.00 | 84 | 1014.3 |
| 20260507211557 | 58 | 102 | 0.9 | 3.5 | 0.00 | 0.00 | 0.00 | 84 | 1014.3 |
| 20260507211036 | 58 | 83 | 1.7 | 3.5 | 0.00 | 0.00 | 0.00 | 84 | 1014.3 |
| 20260507210516 | 58 | 125 | 1.7 | 3.5 | 0.00 | 0.00 | 0.00 | 84 | 1014.3 |
| 20260507210016 | 58 | 116 | 0.9 | 5.2 | 0.00 | 0.00 | 0.00 | 84 | 1014.3 |
| 20260507205516 | 58 | 84 | 0.9 | 5.2 | 0.00 | 0.00 | 0.00 | 84 | 1014.3 |
| 20260507205016 | 58 | 81 | 1.7 | 4.3 | 0.00 | 0.00 | 0.00 | 83 | 1014.3 |
| 20260507204516 | 58 | 109 | 1.7 | 4.3 | 0.00 | 0.00 | 0.00 | 83 | 1014.4 |
| 20260507204017 | 58 | 110 | 1.7 | 5.2 | 0.00 | 0.00 | 0.00 | 83 | 1014.3 |
| 20260507203516 | 59 | 90 | 1.7 | 5.2 | 0.00 | 0.00 | 0.00 | 83 | 1014.4 |
| 20260507203017 | 59 | 71 | 1.7 | 3.5 | 0.00 | 0.00 | 0.00 | 83 | 1014.4 |
| 20260507202517 | 59 | 78 | 0.0 | 1.7 | 0.00 | 0.00 | 0.00 | 83 | 1014.4 |
| 20260507202016 | 59 | 69 | 0.0 | 3.5 | 0.00 | 0.00 | 0.00 | 83 | 1014.3 |
| 20260507201536 | 59 | 70 | 0.9 | 3.5 | 0.00 | 0.00 | 0.00 | 82 | 1014.2 |
| 20260507201016 | 59 | 89 | 0.9 | 3.5 | 0.00 | 0.00 | 0.00 | 82 | 1014.2 |
| 20260507200617 | 59 | 129 | 0.9 | 2.6 | 0.00 | 0.00 | 0.00 | 82 | 1014.1 |
| 20260507200016 | 59 | 128 | 1.7 | 2.6 | 0.00 | 0.00 | 0.00 | 82 | 1013.9 |
| 20260507195536 | 59 | 127 | 0.9 | 2.6 | 0.00 | 0.00 | 0.00 | 82 | 1013.8 |
| 20260507195016 | 60 | 174 | 0.0 | 3.5 | 0.00 | 0.00 | 0.00 | 81 | 1013.8 |
| 20260507194516 | 60 | 128 | 1.7 | 4.3 | 0.00 | 0.00 | 0.00 | 81 | 1013.8 |
| 20260507194016 | 60 | 102 | 1.7 | 4.3 | 0.00 | 0.00 | 0.00 | 81 | 1013.8 |
| 20260507193516 | 60 | 87 | 0.9 | 5.2 | 0.00 | 0.00 | 0.00 | 80 | 1013.8 |
| 20260507193037 | 60 | 120 | 1.7 | 5.2 | 0.00 | 0.00 | 0.00 | 80 | 1013.8 |
| 20260507192517 | 61 | 156 | 1.7 | 3.5 | 0.00 | 0.00 | 0.00 | 80 | 1013.8 |
| 20260507192056 | 61 | 139 | 0.9 | 3.5 | 0.00 | 0.00 | 0.00 | 79 | 1013.8 |
| 20260507191515 | 61 | 120 | 0.9 | 2.6 | 0.00 | 0.00 | 0.00 | 79 | 1013.8 |
| 20260507191037 | 61 | 127 | 1.7 | 2.6 | 0.00 | 0.00 | 0.00 | 78 | 1013.8 |
| 20260507190516 | 62 | 126 | 0.9 | 3.5 | 0.00 | 0.00 | 0.00 | 78 | 1013.8 |
| 20260507190017 | 62 | 165 | 1.7 | 3.5 | 0.00 | 0.00 | 0.00 | 77 | 1013.8 |
| 20260507185517 | 63 | 181 | 1.7 | 2.6 | 0.00 | 0.00 | 0.00 | 76 | 1013.8 |
| 20260507185016 | 63 | 175 | 0.9 | 2.6 | 0.00 | 0.00 | 0.00 | 76 | 1013.9 |
| 20260507184556 | 63 | 163 | 0.9 | 2.6 | 0.00 | 0.00 | 0.00 | 75 | 1013.8 |
| 20260507184016 | 63 | 138 | 0.9 | 1.7 | 0.00 | 0.00 | 0.00 | 75 | 1013.9 |
| 20260507183536 | 64 | 157 | 0.9 | 2.6 | 0.00 | 0.00 | 0.00 | 74 | 1013.9 |
| 20260507183016 | 64 | 177 | 0.9 | 3.5 | 0.00 | 0.00 | 0.00 | 74 | 1013.9 |
| 20260507182536 | 64 | 170 | 0.9 | 3.5 | 0.00 | 0.00 | 0.00 | 74 | 1014.0 |
| 20260507182016 | 64 | 126 | 0.9 | 2.6 | 0.00 | 0.00 | 0.00 | 73 | 1014.1 |
| 20260507181516 | 65 | 169 | 0.9 | 5.2 | 0.00 | 0.00 | 0.00 | 73 | 1014.1 |
| 20260507181016 | 65 | 252 | 2.6 | 5.2 | 0.00 | 0.00 | 0.00 | 73 | 1014.0 |
| 20260507180516 | 65 | 270 | 1.7 | 5.2 | 0.00 | 0.00 | 0.00 | 73 | 1014.0 |
| 20260507180018 | 65 | 278 | 2.6 | 5.2 | 0.00 | 0.00 | 0.00 | 72 | 1014.1 |
| 20260507175516 | 65 | 185 | 0.9 | 5.2 | 0.00 | 0.00 | 0.00 | 72 | 1014.1 |
| 20260507175016 | 65 | 238 | 2.6 | 6.1 | 0.00 | 0.00 | 0.00 | 72 | 1014.1 |
| 20260507174516 | 65 | 268 | 1.7 | 6.1 | 0.00 | 0.00 | 0.00 | 72 | 1014.0 |
| 20260507174016 | 65 | 228 | 1.7 | 5.2 | 0.00 | 0.00 | 0.00 | 72 | 1014.0 |
| 20260507173519 | 65 | 258 | 3.5 | 7.0 | 0.00 | 0.00 | 0.00 | 71 | 1014.0 |
| 20260507173016 | 66 | 275 | 2.6 | 7.0 | 0.00 | 0.00 | 0.00 | 72 | 1013.9 |
| 20260507172516 | 66 | 169 | 1.7 | 6.1 | 0.00 | 0.00 | 0.00 | 72 | 1013.9 |
| 20260507172036 | 66 | 173 | 2.6 | 6.1 | 0.00 | 0.00 | 0.00 | 72 | 1013.9 |
| 20260507171516 | 66 | 179 | 3.5 | 7.0 | 0.00 | 0.00 | 0.00 | 72 | 1013.8 |
| 20260507171016 | 66 | 150 | 1.7 | 7.0 | 0.00 | 0.00 | 0.00 | 72 | 1013.8 |
| 20260507170556 | 66 | 148 | 1.7 | 5.2 | 0.00 | 0.00 | 0.00 | 72 | 1013.8 |
| 20260507170056 | 65 | 216 | 1.7 | 6.1 | 0.00 | 0.00 | 0.00 | 71 | 1013.8 |
| 20260507165516 | 66 | 191 | 3.5 | 6.1 | 0.00 | 0.00 | 0.00 | 71 | 1013.7 |
| 20260507165036 | 66 | 165 | 3.5 | 6.1 | 0.00 | 0.00 | 0.00 | 70 | 1013.7 |
| 20260507164516 | 66 | 180 | 3.5 | 7.0 | 0.00 | 0.00 | 0.00 | 70 | 1013.7 |
| 20260507164016 | 66 | 175 | 4.3 | 7.0 | 0.00 | 0.00 | 0.00 | 69 | 1013.8 |
| 20260507163516 | 67 | 189 | 3.5 | 6.1 | 0.00 | 0.00 | 0.00 | 69 | 1013.9 |
| 20260507163016 | 67 | 231 | 3.5 | 6.1 | 0.00 | 0.00 | 0.00 | 70 | 1013.9 |
| 20260507162536 | 66 | 262 | 2.6 | 6.1 | 0.00 | 0.00 | 0.00 | 70 | 1013.8 |
| 20260507162016 | 66 | 226 | 2.6 | 6.1 | 0.00 | 0.00 | 0.00 | 70 | 1013.9 |
| 20260507161516 | 67 | 239 | 3.5 | 7.0 | 0.00 | 0.00 | 0.00 | 70 | 1013.8 |
| 20260507161016 | 67 | 191 | 3.5 | 7.0 | 0.00 | 0.00 | 0.00 | 69 | 1013.8 |
| 20260507160516 | 67 | 163 | 1.7 | 7.0 | 0.00 | 0.00 | 0.00 | 70 | 1013.8 |
| 20260507160036 | 67 | 163 | 3.5 | 7.0 | 0.00 | 0.00 | 0.00 | 70 | 1013.8 |
| 20260507155516 | 66 | 167 | 2.6 | 7.0 | 0.00 | 0.00 | 0.00 | 71 | 1013.8 |
| 20260507155016 | 66 | 167 | 4.3 | 8.7 | 0.00 | 0.00 | 0.00 | 71 | 1014.0 |
| 20260507154516 | 66 | 166 | 3.5 | 8.7 | 0.00 | 0.00 | 0.00 | 71 | 1014.0 |
| 20260507154016 | 66 | 197 | 4.3 | 8.7 | 0.00 | 0.00 | 0.00 | 71 | 1014.1 |
| 20260507153516 | 66 | 179 | 5.2 | 9.6 | 0.00 | 0.00 | 0.00 | 71 | 1014.1 |
| 20260507153016 | 66 | 190 | 3.5 | 9.6 | 0.00 | 0.00 | 0.00 | 72 | 1013.9 |
| 20260507152516 | 66 | 167 | 4.3 | 9.6 | 0.00 | 0.00 | 0.00 | 72 | 1013.9 |
| 20260507152036 | 66 | 171 | 3.5 | 10.4 | 0.00 | 0.00 | 0.00 | 72 | 1013.9 |
| 20260507151556 | 65 | 179 | 7.0 | 11.3 | 0.00 | 0.00 | 0.00 | 71 | 1014.0 |
| 20260507151016 | 66 | 178 | 6.1 | 11.3 | 0.00 | 0.00 | 0.00 | 72 | 1013.9 |
| 20260507150516 | 66 | 184 | 6.1 | 10.4 | 0.00 | 0.00 | 0.00 | 72 | 1013.9 |
| 20260507150016 | 66 | 177 | 6.1 | 10.4 | 0.00 | 0.00 | 0.00 | 72 | 1013.9 |
| 20260507145516 | 66 | 177 | 6.1 | 10.4 | 0.00 | 0.00 | 0.00 | 72 | 1013.9 |
| 20260507145016 | 66 | 179 | 5.2 | 10.4 | 0.00 | 0.00 | 0.00 | 71 | 1014.0 |
| 20260507144516 | 66 | 189 | 5.2 | 11.3 | 0.00 | 0.00 | 0.00 | 71 | 1014.0 |
| 20260507144016 | 67 | 177 | 7.0 | 11.3 | 0.00 | 0.00 | 0.00 | 71 | 1014.1 |
| 20260507143516 | 67 | 168 | 5.2 | 10.4 | 0.00 | 0.00 | 0.00 | 71 | 1014.0 |
| 20260507143036 | 67 | 177 | 6.1 | 10.4 | 0.00 | 0.00 | 0.00 | 70 | 1014.1 |
| 20260507142516 | 68 | 156 | 4.3 | 10.4 | 0.00 | 0.00 | 0.00 | 71 | 1014.1 |
| 20260507142016 | 67 | 159 | 3.5 | 11.3 | 0.00 | 0.00 | 0.00 | 71 | 1014.1 |
| 20260507141516 | 67 | 163 | 5.2 | 11.3 | 0.00 | 0.00 | 0.00 | 71 | 1014.2 |
| 20260507141016 | 67 | 164 | 3.5 | 12.2 | 0.00 | 0.00 | 0.00 | 70 | 1014.2 |
| 20260507140516 | 67 | 159 | 5.2 | 12.2 | 0.00 | 0.00 | 0.00 | 71 | 1014.3 |
| 20260507140036 | 67 | 190 | 5.2 | 9.6 | 0.00 | 0.00 | 0.00 | 71 | 1014.3 |
| 20260507135556 | 67 | 149 | 5.2 | 10.4 | 0.00 | 0.00 | 0.00 | 71 | 1014.3 |
| 20260507135016 | 67 | 171 | 6.1 | 11.3 | 0.00 | 0.00 | 0.00 | 70 | 1014.4 |
| 20260507134516 | 67 | 179 | 6.1 | 11.3 | 0.00 | 0.00 | 0.00 | 71 | 1014.4 |
| 20260507134016 | 67 | 150 | 5.2 | 13.0 | 0.00 | 0.00 | 0.00 | 71 | 1014.3 |
| 20260507133516 | 67 | 165 | 6.1 | 13.0 | 0.00 | 0.00 | 0.00 | 70 | 1014.3 |
| 20260507133036 | 67 | 162 | 4.3 | 10.4 | 0.00 | 0.00 | 0.00 | 70 | 1014.3 |
| 20260507132536 | 67 | 155 | 5.2 | 10.4 | 0.00 | 0.00 | 0.00 | 70 | 1014.3 |
| 20260507132036 | 67 | 150 | 6.1 | 12.2 | 0.00 | 0.00 | 0.00 | 70 | 1014.4 |
| 20260507131516 | 67 | 177 | 6.1 | 12.2 | 0.00 | 0.00 | 0.00 | 71 | 1014.4 |
| 20260507131016 | 67 | 172 | 6.1 | 12.2 | 0.00 | 0.00 | 0.00 | 70 | 1014.4 |
| 20260507130556 | 67 | 185 | 7.8 | 10.4 | 0.00 | 0.00 | 0.00 | 71 | 1014.4 |
| 20260507123016 | 67 | 178 | 5.2 | 12.2 | 0.00 | 0.00 | 0.00 | 71 | 1014.3 |
| 20260507122516 | 67 | 129 | 3.5 | 11.3 | 0.00 | 0.00 | 0.00 | 71 | 1014.2 |
| 20260507122036 | 68 | 97 | 4.3 | 11.3 | 0.00 | 0.00 | 0.00 | 70 | 1014.1 |
| 20260507121516 | 68 | 107 | 4.3 | 9.6 | 0.00 | 0.00 | 0.00 | 71 | 1014.2 |
| 20260507121016 | 68 | 118 | 3.5 | 9.6 | 0.00 | 0.00 | 0.00 | 71 | 1014.1 |
| 20260507120516 | 68 | 98 | 2.6 | 8.7 | 0.00 | 0.00 | 0.00 | 72 | 1014.1 |
| 20260507120016 | 68 | 133 | 3.5 | 13.0 | 0.00 | 0.00 | 0.00 | 71 | 1014.2 |
| 20260507115516 | 68 | 119 | 5.2 | 13.0 | 0.00 | 0.00 | 0.00 | 72 | 1014.2 |
| 20260507115015 | 68 | 136 | 4.3 | 9.6 | 0.00 | 0.00 | 0.00 | 72 | 1014.3 |
| 20260507114516 | 67 | 127 | 2.6 | 7.8 | 0.00 | 0.00 | 0.00 | 73 | 1014.3 |
| 20260507114015 | 67 | 168 | 2.6 | 7.8 | 0.00 | 0.00 | 0.00 | 73 | 1014.5 |
| 20260507113516 | 66 | 143 | 2.6 | 12.2 | 0.00 | 0.00 | 0.00 | 73 | 1014.5 |
| 20260507113116 | 67 | 78 | 5.2 | 12.2 | 0.00 | 0.00 | 0.00 | 72 | 1014.5 |
| 20260507112516 | 67 | 123 | 2.6 | 7.8 | 0.00 | 0.00 | 0.00 | 72 | 1014.5 |
| 20260507112016 | 67 | 88 | 3.5 | 10.4 | 0.00 | 0.00 | 0.00 | 72 | 1014.5 |
| 20260507111515 | 67 | 93 | 4.3 | 10.4 | 0.00 | 0.00 | 0.00 | 72 | 1014.6 |
| 20260507111015 | 67 | 106 | 4.3 | 10.4 | 0.00 | 0.00 | 0.00 | 72 | 1014.5 |
| 20260507110515 | 67 | 96 | 5.2 | 11.3 | 0.00 | 0.00 | 0.00 | 70 | 1014.5 |
| 20260507110016 | 68 | 105 | 5.2 | 13.0 | 0.00 | 0.00 | 0.00 | 69 | 1014.4 |
| 20260507105516 | 68 | 104 | 4.3 | 13.0 | 0.00 | 0.00 | 0.00 | 69 | 1014.3 |
| 20260507105015 | 67 | 95 | 4.3 | 9.6 | 0.00 | 0.00 | 0.00 | 70 | 1014.4 |
| 20260507104516 | 67 | 114 | 3.5 | 11.3 | 0.00 | 0.00 | 0.00 | 72 | 1014.5 |
| 20260507104016 | 67 | 93 | 5.2 | 12.2 | 0.00 | 0.00 | 0.00 | 72 | 1014.5 |
| 20260507103515 | 66 | 108 | 4.3 | 13.0 | 0.00 | 0.00 | 0.00 | 72 | 1014.6 |
| 20260507103016 | 66 | 103 | 5.2 | 13.9 | 0.00 | 0.00 | 0.00 | 74 | 1014.6 |
| 20260507102515 | 66 | 79 | 7.8 | 13.9 | 0.00 | 0.00 | 0.00 | 73 | 1014.6 |
| 20260507102035 | 67 | 98 | 5.2 | 12.2 | 0.00 | 0.00 | 0.00 | 72 | 1014.6 |
| 20260507101516 | 66 | 132 | 3.5 | 10.4 | 0.00 | 0.00 | 0.00 | 73 | 1014.6 |
| 20260507101015 | 67 | 119 | 3.5 | 9.6 | 0.00 | 0.00 | 0.00 | 73 | 1014.6 |
| 20260507100515 | 67 | 207 | 1.7 | 7.8 | 0.00 | 0.00 | 0.00 | 73 | 1014.6 |
| 20260507100016 | 67 | 117 | 2.6 | 13.0 | 0.00 | 0.00 | 0.00 | 73 | 1014.6 |
| 20260507095535 | 67 | 96 | 5.2 | 13.0 | 0.00 | 0.00 | 0.00 | 72 | 1014.5 |
| 20260507095015 | 67 | 73 | 4.3 | 13.9 | 0.00 | 0.00 | 0.00 | 71 | 1014.5 |
| 20260507094515 | 67 | 94 | 5.2 | 13.9 | 0.00 | 0.00 | 0.00 | 71 | 1014.4 |
| 20260507094016 | 67 | 89 | 5.2 | 13.9 | 0.00 | 0.00 | 0.00 | 71 | 1014.3 |
| 20260507093535 | 67 | 77 | 5.2 | 13.9 | 0.00 | 0.00 | 0.00 | 71 | 1014.4 |
| 20260507093015 | 67 | 107 | 3.5 | 9.6 | 0.00 | 0.00 | 0.00 | 71 | 1014.5 |
| 20260507092535 | 67 | 137 | 2.6 | 7.0 | 0.00 | 0.00 | 0.00 | 71 | 1014.5 |
| 20260507092016 | 67 | 100 | 3.5 | 11.3 | 0.00 | 0.00 | 0.00 | 72 | 1014.4 |
| 20260507091515 | 66 | 94 | 5.2 | 11.3 | 0.00 | 0.00 | 0.00 | 72 | 1014.3 |
| 20260507091015 | 66 | 99 | 4.3 | 12.2 | 0.00 | 0.00 | 0.00 | 72 | 1014.3 |
| 20260507090515 | 66 | 83 | 6.1 | 17.4 | 0.00 | 0.00 | 0.00 | 71 | 1014.3 |
| 20260507090015 | 66 | 77 | 6.1 | 17.4 | 0.00 | 0.00 | 0.00 | 71 | 1014.3 |
| 20260507085515 | 66 | 85 | 5.2 | 15.6 | 0.00 | 0.00 | 0.00 | 71 | 1014.3 |
| 20260507085015 | 66 | 119 | 4.3 | 15.6 | 0.00 | 0.00 | 0.00 | 72 | 1014.3 |
| 20260507084515 | 66 | 89 | 3.5 | 13.9 | 0.00 | 0.00 | 0.00 | 71 | 1014.3 |
| 20260507084015 | 66 | 97 | 5.2 | 14.8 | 0.00 | 0.00 | 0.00 | 72 | 1014.2 |
| 20260507083516 | 66 | 87 | 6.1 | 14.8 | 0.00 | 0.00 | 0.00 | 71 | 1014.2 |
| 20260507083015 | 65 | 120 | 5.2 | 12.2 | 0.00 | 0.00 | 0.00 | 72 | 1014.2 |
| 20260507082555 | 66 | 102 | 7.8 | 11.3 | 0.00 | 0.00 | 0.00 | 71 | 1014.2 |
| 20260507082015 | 66 | 118 | 5.2 | 11.3 | 0.00 | 0.00 | 0.00 | 72 | 1014.1 |
| 20260507081515 | 65 | 115 | 5.2 | 12.2 | 0.00 | 0.00 | 0.00 | 73 | 1014.1 |
| 20260507081015 | 65 | 81 | 7.0 | 12.2 | 0.00 | 0.00 | 0.00 | 73 | 1014.0 |
| 20260507080515 | 65 | 79 | 6.1 | 15.6 | 0.00 | 0.00 | 0.00 | 73 | 1014.0 |
| 20260507080015 | 65 | 88 | 4.3 | 15.6 | 0.00 | 0.00 | 0.00 | 74 | 1014.0 |
| 20260507075515 | 64 | 89 | 5.2 | 13.9 | 0.00 | 0.06 | 0.00 | 73 | 1014.0 |
| 20260507075015 | 64 | 102 | 7.0 | 13.9 | 0.00 | 0.06 | 0.00 | 72 | 1013.9 |
| 20260507074555 | 65 | 114 | 5.2 | 12.2 | 0.00 | 0.06 | 0.00 | 73 | 1013.9 |
| 20260507074015 | 64 | 107 | 6.1 | 12.2 | 0.00 | 0.06 | 0.00 | 73 | 1013.8 |
| 20260507073515 | 64 | 125 | 7.0 | 12.2 | 0.00 | 0.06 | 0.00 | 74 | 1013.8 |
| 20260507073015 | 64 | 115 | 7.0 | 12.2 | 0.00 | 0.06 | 0.00 | 74 | 1013.8 |
| 20260507072515 | 64 | 124 | 6.1 | 12.2 | 0.00 | 0.06 | 0.00 | 74 | 1013.8 |
| 20260507072035 | 64 | 125 | 5.2 | 10.4 | 0.00 | 0.06 | 0.00 | 74 | 1013.8 |
| 20260507071515 | 64 | 117 | 3.5 | 8.7 | 0.00 | 0.06 | 0.00 | 74 | 1013.7 |
| 20260507071055 | 64 | 128 | 2.6 | 8.7 | 0.00 | 0.06 | 0.00 | 74 | 1013.6 |
| 20260507070515 | 64 | 121 | 2.6 | 9.6 | 0.00 | 0.06 | 0.00 | 75 | 1013.7 |
| 20260507070015 | 63 | 87 | 4.3 | 9.6 | 0.00 | 0.06 | 0.00 | 75 | 1013.6 |
| 20260507065515 | 63 | 87 | 1.7 | 7.8 | 0.00 | 0.06 | 0.00 | 75 | 1013.5 |
| 20260507065015 | 62 | 107 | 3.5 | 7.8 | 0.00 | 0.06 | 0.00 | 76 | 1013.4 |
| 20260507064515 | 62 | 124 | 3.5 | 7.8 | 0.00 | 0.06 | 0.00 | 76 | 1013.4 |
| 20260507064015 | 62 | 121 | 3.5 | 7.0 | 0.00 | 0.06 | 0.00 | 76 | 1013.4 |
| 20260507063515 | 62 | 122 | 2.6 | 6.1 | 0.00 | 0.06 | 0.00 | 75 | 1013.4 |
| 20260507063015 | 62 | 89 | 1.7 | 6.1 | 0.00 | 0.06 | 0.00 | 75 | 1013.3 |
| 20260507062515 | 62 | 106 | 2.6 | 7.0 | 0.00 | 0.06 | 0.00 | 75 | 1013.3 |
| 20260507062015 | 62 | 107 | 2.6 | 7.0 | 0.00 | 0.06 | 0.00 | 76 | 1013.3 |
| 20260507061515 | 62 | 101 | 1.7 | 5.2 | 0.00 | 0.06 | 0.00 | 76 | 1013.2 |
| 20260507061015 | 61 | 116 | 1.7 | 7.0 | 0.00 | 0.06 | 0.00 | 76 | 1013.2 |
| 20260507060515 | 61 | 77 | 3.5 | 7.0 | 0.00 | 0.06 | 0.00 | 77 | 1013.1 |
| 20260507060015 | 61 | 76 | 2.6 | 8.7 | 0.00 | 0.06 | 0.00 | 77 | 1013.1 |
| 20260507055535 | 60 | 78 | 4.3 | 9.6 | 0.00 | 0.06 | 0.00 | 77 | 1013.2 |
| 20260507055015 | 60 | 76 | 3.5 | 9.6 | 0.00 | 0.06 | 0.00 | 78 | 1013.1 |
| 20260507054515 | 60 | 86 | 2.6 | 7.0 | 0.00 | 0.06 | 0.00 | 78 | 1013.1 |
| 20260507054015 | 60 | 83 | 3.5 | 7.0 | 0.00 | 0.06 | 0.00 | 78 | 1012.9 |
| 20260507053515 | 60 | 85 | 1.7 | 5.2 | 0.00 | 0.06 | 0.00 | 78 | 1013.0 |
| 20260507053035 | 60 | 112 | 1.7 | 5.2 | 0.00 | 0.06 | 0.00 | 78 | 1013.0 |
| 20260507052515 | 60 | 90 | 1.7 | 6.1 | 0.00 | 0.06 | 0.00 | 78 | 1012.9 |
| 20260507052015 | 60 | 77 | 2.6 | 6.1 | 0.00 | 0.06 | 0.00 | 79 | 1012.8 |
| 20260507051535 | 60 | 81 | 2.6 | 7.0 | 0.00 | 0.06 | 0.00 | 79 | 1012.8 |
| 20260507051035 | 59 | 72 | 2.6 | 7.0 | 0.00 | 0.06 | 0.00 | 80 | 1012.8 |
| 20260507050515 | 59 | 88 | 1.7 | 6.1 | 0.00 | 0.06 | 0.00 | 80 | 1012.7 |
| 20260507050015 | 59 | 133 | 1.7 | 4.3 | 0.00 | 0.07 | 0.00 | 80 | 1012.6 |
| 20260507045515 | 59 | 84 | 0.9 | 4.3 | 0.00 | 0.07 | 0.00 | 81 | 1012.7 |
| 20260507045035 | 59 | 75 | 1.7 | 4.3 | 0.00 | 0.07 | 0.00 | 81 | 1012.6 |
| 20260507044515 | 59 | 123 | 0.9 | 4.3 | 0.00 | 0.08 | 0.00 | 81 | 1012.5 |
| 20260507044015 | 59 | 119 | 1.7 | 4.3 | 0.00 | 0.08 | 0.00 | 81 | 1012.4 |
| 20260507043535 | 58 | 112 | 1.7 | 2.6 | 0.00 | 0.09 | 0.00 | 81 | 1012.6 |
| 20260507043035 | 58 | 124 | 0.9 | 3.5 | 0.00 | 0.10 | 0.00 | 81 | 1012.5 |
| 20260507042515 | 58 | 75 | 0.9 | 3.5 | 0.00 | 0.11 | 0.00 | 81 | 1012.5 |
| 20260507042015 | 58 | 71 | 1.7 | 3.5 | 0.00 | 0.11 | 0.00 | 82 | 1012.5 |
| 20260507041515 | 58 | 81 | 0.9 | 3.5 | 0.00 | 0.11 | 0.00 | 82 | 1012.5 |
| 20260507041015 | 58 | 82 | 1.7 | 3.5 | 0.00 | 0.11 | 0.00 | 82 | 1012.5 |
| 20260507040516 | 58 | 97 | 0.9 | 3.5 | 0.00 | 0.11 | 0.00 | 83 | 1012.4 |
| 20260507040015 | 58 | 121 | 1.7 | 3.5 | 0.00 | 0.11 | 0.00 | 83 | 1012.4 |
| 20260507035535 | 58 | 126 | 0.9 | 5.2 | 0.00 | 0.11 | 0.00 | 83 | 1012.4 |
| 20260507035015 | 58 | 84 | 1.7 | 7.0 | 0.00 | 0.11 | 0.00 | 83 | 1012.4 |
| 20260507034515 | 58 | 83 | 2.6 | 7.0 | 0.00 | 0.11 | 0.00 | 83 | 1012.4 |
| 20260507034015 | 57 | 84 | 1.7 | 4.3 | 0.00 | 0.11 | 0.00 | 84 | 1012.4 |
| 20260507033555 | 57 | 115 | 2.6 | 6.1 | 0.00 | 0.11 | 0.00 | 84 | 1012.4 |
| 20260507033015 | 57 | 129 | 2.6 | 6.1 | 0.00 | 0.12 | 0.00 | 84 | 1012.4 |
| 20260507032515 | 57 | 92 | 1.7 | 3.5 | 0.00 | 0.12 | 0.00 | 84 | 1012.4 |
| 20260507032015 | 57 | 98 | 0.9 | 3.5 | 0.00 | 0.28 | 0.00 | 84 | 1012.4 |
| 20260507031535 | 57 | 112 | 1.7 | 6.1 | 0.00 | 0.45 | 0.00 | 85 | 1012.4 |
| 20260507031015 | 57 | 127 | 1.7 | 6.1 | 0.00 | 0.46 | 0.00 | 85 | 1012.4 |
| 20260507030515 | 57 | 81 | 1.7 | 3.5 | 0.00 | 0.46 | 0.00 | 85 | 1012.4 |
| 20260507030015 | 57 | 92 | 1.7 | 3.5 | 0.00 | 0.48 | 0.00 | 85 | 1012.4 |
| 20260507025515 | 57 | 118 | 0.9 | 3.5 | 0.00 | 0.48 | 0.00 | 85 | 1012.5 |
| 20260507025035 | 57 | 107 | 0.9 | 3.5 | 0.00 | 0.48 | 0.00 | 85 | 1012.5 |
| 20260507024515 | 57 | 110 | 1.7 | 3.5 | 0.00 | 0.49 | 0.00 | 85 | 1012.5 |
| 20260507024015 | 57 | 104 | 1.7 | 7.0 | 0.00 | 0.56 | 0.00 | 85 | 1012.5 |
| 20260507023535 | 57 | 89 | 2.6 | 7.0 | 0.00 | 0.57 | 0.00 | 85 | 1012.5 |
| 20260507023015 | 57 | 90 | 1.7 | 6.1 | 0.00 | 0.57 | 0.00 | 85 | 1012.5 |
| 20260507022515 | 57 | 104 | 1.7 | 6.1 | 0.00 | 0.57 | 0.00 | 85 | 1012.5 |
| 20260507022015 | 57 | 105 | 1.7 | 7.0 | 0.00 | 0.57 | 0.00 | 86 | 1012.5 |
| 20260507021515 | 57 | 98 | 1.7 | 7.0 | 0.00 | 0.59 | 0.00 | 86 | 1012.5 |
| 20260507021015 | 57 | 87 | 1.7 | 6.1 | 0.00 | 0.60 | 0.00 | 86 | 1012.6 |
| 20260507020515 | 57 | 100 | 0.9 | 6.1 | 0.00 | 0.60 | 0.00 | 86 | 1012.6 |
| 20260507020015 | 57 | 124 | 1.7 | 4.3 | 0.00 | 0.61 | 0.00 | 86 | 1012.6 |
| 20260507015515 | 57 | 123 | 1.7 | 4.3 | 0.00 | 0.62 | 0.00 | 86 | 1012.5 |
| 20260507015035 | 57 | 123 | 1.7 | 3.5 | 0.00 | 0.66 | 0.00 | 86 | 1012.5 |
| 20260507014515 | 57 | 116 | 1.7 | 3.5 | 0.00 | 0.66 | 0.00 | 85 | 1012.5 |
| 20260507014014 | 57 | 112 | 0.9 | 3.5 | 0.00 | 0.68 | 0.00 | 85 | 1012.4 |
| 20260507013515 | 57 | 117 | 1.7 | 5.2 | 0.00 | 0.69 | 0.00 | 85 | 1012.4 |
| 20260507013015 | 57 | 106 | 0.9 | 6.1 | 0.00 | 0.69 | 0.00 | 85 | 1012.4 |
| 20260507012514 | 57 | 78 | 1.7 | 6.1 | 0.00 | 0.69 | 0.00 | 85 | 1012.5 |
| 20260507012015 | 57 | 80 | 2.6 | 6.1 | 0.00 | 0.69 | 0.00 | 85 | 1012.5 |
| 20260507011514 | 57 | 92 | 1.7 | 7.0 | 0.00 | 0.69 | 0.00 | 85 | 1012.5 |
| 20260507011014 | 58 | 83 | 3.5 | 7.0 | 0.00 | 0.69 | 0.00 | 85 | 1012.6 |
| 20260507010515 | 58 | 82 | 1.7 | 3.5 | 0.00 | 0.69 | 0.00 | 85 | 1012.6 |
| 20260507010035 | 58 | 78 | 1.7 | 4.3 | 0.00 | 0.69 | 0.00 | 85 | 1012.7 |
| 20260507005515 | 58 | 74 | 1.7 | 5.2 | 0.00 | 0.69 | 0.00 | 85 | 1012.6 |
| 20260507005014 | 58 | 115 | 1.7 | 5.2 | 0.00 | 0.69 | 0.00 | 85 | 1012.6 |
| 20260507004514 | 58 | 103 | 0.9 | 5.2 | 0.00 | 0.69 | 0.00 | 85 | 1012.6 |
| 20260507004014 | 58 | 114 | 1.7 | 5.2 | 0.00 | 0.69 | 0.00 | 85 | 1012.6 |
| 20260507003534 | 58 | 87 | 0.9 | 5.2 | 0.00 | 0.69 | 0.00 | 85 | 1012.6 |
| 20260507003034 | 58 | 86 | 1.7 | 5.2 | 0.00 | 0.69 | 0.00 | 85 | 1012.6 |
| 20260507002514 | 58 | 77 | 0.9 | 5.2 | 0.00 | 0.69 | 0.00 | 85 | 1012.5 |
| 20260507002016 | 58 | 75 | 1.7 | 6.1 | 0.00 | 0.69 | 0.00 | 85 | 1012.5 |
| 20260507001537 | 58 | 81 | 3.5 | 6.1 | 0.00 | 0.69 | 0.00 | 84 | 1012.6 |
| 20260507001016 | 58 | 88 | 1.7 | 3.5 | 0.00 | 0.69 | 0.00 | 85 | 1012.6 |
| 20260507000517 | 58 | 77 | 0.9 | 2.6 | 0.00 | 0.70 | 0.00 | 85 | 1012.6 |
| 20260507000016 | 58 | 125 | 0.9 | 2.6 | 0.00 | 0.70 | 0.00 | 85 | 1012.6 |
| 20260506235516 | 58 | 123 | 0.9 | 2.6 | 0.00 | 0.71 | 0.00 | 85 | 1012.6 |
| 20260506235016 | 58 | 134 | 0.9 | 3.5 | 0.00 | 0.76 | 0.00 | 84 | 1012.6 |
| 20260506234516 | 58 | 72 | 1.7 | 6.1 | 0.00 | 0.78 | 0.00 | 84 | 1012.7 |
| 20260506234016 | 58 | 75 | 2.6 | 6.1 | 0.00 | 0.87 | 0.00 | 84 | 1012.8 |
| 20260506233536 | 58 | 73 | 2.6 | 6.1 | 0.00 | 0.90 | 0.00 | 84 | 1012.8 |
| 20260506233017 | 58 | 101 | 1.7 | 6.1 | 0.00 | 0.91 | 0.00 | 84 | 1012.8 |
| 20260506232514 | 58 | 78 | 1.7 | 6.1 | 0.00 | 0.91 | 0.00 | 84 | 1012.8 |
| 20260506232016 | 58 | 79 | 3.5 | 6.1 | 0.00 | 0.91 | 0.00 | 84 | 1012.8 |
| 20260506231516 | 58 | 73 | 1.7 | 4.3 | 0.00 | 0.91 | 0.00 | 84 | 1012.8 |
| 20260506231016 | 58 | 74 | 1.7 | 3.5 | 0.00 | 0.91 | 0.00 | 84 | 1012.7 |
| 20260506230537 | 58 | 74 | 1.7 | 5.2 | 0.00 | 0.91 | 0.00 | 84 | 1012.8 |
| 20260506230016 | 58 | 82 | 1.7 | 5.2 | 0.00 | 0.91 | 0.00 | 83 | 1012.7 |
| 20260506225536 | 58 | 83 | 1.7 | 5.2 | 0.00 | 0.91 | 0.00 | 83 | 1012.6 |
| 20260506225016 | 58 | 69 | 2.6 | 4.3 | 0.00 | 0.91 | 0.00 | 83 | 1012.6 |